Regional Weather Roundup
Issued by NWS Wakefield, VA

Home | Current Version | Previous Version | Text Only | Print | Product List | Glossary On
Versions: 1 2 3 4 5 6 7 8 9 10 11 12 13 14 15 16 17 18 19 20 21 22 23 24 25 26 27 28 29 30 31 32 33 34 35 36 37 38 39 40 41 42 43 44 45 46 47 48 49 50
504
ASUS41 KAKQ 161315
RWRAKQ

REGIONAL WEATHER ROUNDUP
NATIONAL WEATHER SERVICE WAKEFIELD VA
800 AM EST SAT DEC 16 2017

Note: "fair" indicates few or no clouds below 12,000 feet with no
significant weather and/or obstructions to visibility. * = Denotes
station may not report precipitation (e.g., rain,snow,etc.),
thunder or fog.

VAZ042-051-052>054-056-161400-
NORTHERN VIRGINIA

CITY           SKY/WX    TMP DP  RH WIND       PRES   REMARKS
WASH NATIONAL  MOCLDY    29  21  72 SW7       30.17R
DULLES         PTCLDY    23  20  88 S5        30.15R
FORT BELVOIR   CLEAR     29  19  66 S3        30.16R
QUANTICO       CLEAR     32  20  61 W12       30.18S WCI  23
FREDERICKSBRG* CLEAR     25  22  87 SW3       30.17F
STAFFORD*      CLEAR     26  21  79 CALM      30.21F
WARRENTON      CLEAR     28  17  66 SW3       30.15R
CULPEPER*      CLEAR     22  19  85 CALM      30.17R
MANASSAS*      CLEAR     21  19  92 CALM      30.17R
LEESBURG*      MOCLDY    30  23  74 S7        30.14S
WINCHESTER     CLEAR     28  18  64 S6        30.10R
FRONT ROYAL*   PTSUNNY   32  19  59 MISG      30.10R
LURAY*         MOSUNNY   28  21  74 SW3       30.11S
$$

VAZ048-049-060>072-079>083-161400-
CENTRAL AND SOUTH CENTRAL VIRGINIA

CITY           SKY/WX    TMP DP  RH WIND       PRES   REMARKS
RICHMOND       PTCLDY    34  20  56 SW3       30.22R
CHESTERFIELD*  NOT AVBL
PETERSBURG*    CLEAR     27  18  69 SW3       30.23R
HANOVER        CLEAR     23  18  81 CALM      30.20S
TAPPAHANNOCK*  CLEAR     29  21  74 SW5       30.21S
QUINTON*       FAIR      22  21  93 CALM      30.22R
CHARLOTTSVILLE CLEAR     26  17  68 S6        30.15R
GORDONSVILLE*  SUNNY     19  17  91 CALM      30.18R
ORANGE*        CLEAR     21  18  86 CALM      30.17R
LOUISA*        CLEAR     25  17  72 SW6       30.23R
BUMPASS*       FAIR      24  17  77 CALM      30.18S
FARMVILLE*     CLEAR     28  23  82 SW5       30.21R
CREWE*         FAIR      24  20  84 CALM      30.20S
FORT PICKETT*  NOT AVBL
CHASE CITY*    FAIR      24  22  91 CALM      30.22S
CLARKSVILLE*   FAIR      27  21  80 CALM      30.23R
SOUTH HILL*    CLEAR     31  22  69 W3        30.28S
LAWRENCEVILLE* FAIR      29  19  65 CALM      30.22S
EMPORIA*       CLEAR     27  21  80 CALM      30.25R
$$

VAZ088>098-161400-
SOUTHEAST VIRGINIA

CITY           SKY/WX    TMP DP  RH WIND       PRES   REMARKS
NORFOLK        CLEAR     31  24  75 SW3       30.22R
VIRGINIA BEACH PTCLDY    27  22  81 CALM      30.22R
NORFOLK NAVAL  PTCLDY    31  24  75 CALM      30.23R
WEST POINT*    CLEAR    N/A N/A N/A CALM      30.25R
SALUDA*        FAIR      26  21  82 CALM      30.22R
NEWPORT NEWS   CLEAR     25  23  92 CALM      30.23R
LANGLEY AFB    CLEAR     27  23  84 W6        30.21R
FORT EUSTIS    CLEAR     30  21  68 CALM      30.21R
WILLIAMSBURG*  CLEAR     28  25  86 CALM      30.24R
HR EXEC AP*    FAIR      24  22  91 CALM      30.24R
FRANKLIN*      CLEAR     24  22  91 CALM      30.24R
US460-WAKEFLD  CLEAR     25  21  85 W3        30.24R
$$

VAZ020-022-025-037-045-161400-
WEST CENTRAL AND SOUTHWEST VIRGINIA

CITY           SKY/WX    TMP DP  RH WIND       PRES   REMARKS
STAUNTON*      PTCLDY    25  17  71 CALM      30.13S
WAYNESBORO*    SUNNY     26  18  72 SW6       30.12S
HOT SPRINGS VA CLEAR     23  17  75 W18G26    30.00R WCI   9
LYNCHBURG      CLEAR     27  19  72 CALM      30.19R
DANVILLE       PTCLDY    23  19  85 CALM      30.24R
SOUTH BOSTON*  FAIR      22  20  90 CALM      30.24R
MARTINSVILLE   CLOUDY    19  16  87 CALM      30.24R
ROANOKE        PTCLDY    33  20  58 W8        30.19R
BLACKSBURG     CLOUDY    29  20  70 SW5       30.17R
DUBLIN*        CLOUDY    29  21  71 SW7       30.16R
MARION*        CLOUDY    25  20  81 W10       30.17R WCI  15
HILLSVILLE*    CLOUDY    26  20  79 W7        30.13R
RICHLANDS*     FAIR      25  19  79 SW8       30.15S
WISE*          PTCLDY    23  21  93 SW7       30.16S
ABINGDON*      CLOUDY    23  21  91 CALM      30.20S FOG
$$

MDZ021>025-VAZ099-100-161400-
SOUTHERN MARYLAND AND THE DELMARVA PENINSULA

CITY           SKY/WX    TMP DP  RH WIND       PRES   REMARKS
PATUXENT RIVER MOCLDY    30  24  78 SW8       30.18S
BAY BRIDGE APT CLOUDY    32  23  69 MISG      30.15R
LEONARDTOWN    CLOUDY    30  25  80 SW5       30.19S
DOVER          PTCLDY    26  26 100 SW9       30.15R
GEORGETOWN     CLEAR     25  23  92 SW3       30.17S
EASTON         CLEAR     27  23  86 S5        30.20R
CAMBRIDGE      CLEAR     27  25  93 S7        30.17S
SALISBURY      CLEAR     26  25  96 SW3       30.18S
OCEAN CITY     CLEAR     29  25  85 SW6       30.19R
WALLOPS ISLAND CLEAR     30  27  88 MISG      30.20R
ACCOMACK*      CLEAR     28  26  91 W3        30.21R
$$

NCZ012>017-030>032-161400-
NORTH CENTRAL AND EASTERN NORTH CAROLINA

CITY           SKY/WX    TMP DP  RH WIND       PRES   REMARKS
ROANOKE RAPIDS FAIR      27  23  86 CALM      30.24R
RALEIGH        PTCLDY    25  20  81 CALM      30.25R
ELIZABETH CITY CLEAR     28  25  88 NW5       30.25R
AHOSKIE*       CLEAR     24  21  90 CALM      30.24R
EDENTON*       CLEAR     31  26  83 CALM      30.25R
CURRITUCK*     CLEAR     28  24  86 W5        30.25R
KILL DEVIL HLS CLEAR     33  25  72 CALM      30.22R
MANTEO         CLEAR     36  25  65 N6        30.24R
CAPE HATTERAS  CLEAR     39  28  64 VRB6      30.23R
TARBORO*       NOT AVBL
GOLDSBORO      CLEAR     29  24  81 CALM      30.25R
WASHINGTON     CLEAR     31  22  72 CALM      30.26R
GREENVILLE     CLEAR     28  27  93 CALM      30.26R
NEW BERN       CLEAR     29  26  89 SW3       30.28R
WILMINGTON     MOCLDY    31  29  92 CALM      30.29R
$$

VAZ048-161400-
ELSEWHERE

CITY           SKY/WX    TMP DP  RH WIND       PRES   REMARKS
HARRISBURG PA  CLOUDY    31  18  58 SW10      30.05R WCI  22
BALTIMORE      CLOUDY    27  22  81 SW8       30.14R
ANNAPOLIS      PTCLDY    29  23  78 VRB3      30.16R
ANDREWS AFB    CLEAR     26  20  77 SW6       30.15R
PHILADELPHIA   PTCLDY    25  20  81 SW10      30.12R WCI  15
HENDERSON NC   CLEAR     23  17  80 SW6       30.23R
GREENSBORO     PTCLDY    27  20  75 W5        30.22R
ROCKY MOUNT    CLEAR     26  22  84 S3        30.25R
$$

VAZ100-161400-
MARINE

STATION/POSITION TIME  TEMP    WIND        PRES    WAVE   SWELL
                       AIR SEA DIR/SP/G            HT/PER HT/PER
                 (UTC) (F)     (DEG/KT/KT) (MB)    (FT/S) (FT/S)
BRANDYWINE LGT   1236   36     250/ 16/ 19 1021.1F
CAPE MAY NJ      1242   36 41  260/ 15/ 17 1020.4S
LEWES DE         1248   29 40  240/  5/  7 1021.2F
15NM E FENWICK I 1150   38 51  290/ 21/ 27 1021.1    3/ 4
OCEAN-CITY-INLET 1236   32 44  320/  4/  6 1022.1F
WACHAPREAGUE VA  1248   32 38  250/  2/  3 1022.9R
THOMAS POINT MD  1200   33 42  230/ 13/ 14   N/A
GOOSES REEF MD   1300   36 44  240/ 14/ 16 1022.0    1/ 2
COVE POINT MD    1248   33     240/  9/ 14 1022.4R
SOLOMONS ISLAND  1236   34 45  240/ 11/ 12 1021.6F
BISHOPS HEAD MD  1248   37 32  250/ 11/ 12 1022.5R
PINEY POINT MD   1236          290/  8/ 10   N/A
POTOMAC MD       1300   36 45  250/ 14/ 16 1022.0    1/ 2
CAMBRIDGE MD     1236   29 38              1022.0F
LEWISETTA VA     1248   31 38  260/  9/ 10 1022.7R
RAPPAHANNOCK LGT 1236          270/ 12/ 13 1023.3R
STINGRAY PT      1300   33 44  290/ 10/ 12 1023.5    1
YORK RVR RNG VA  1236   36     280/ 10/ 12 1023.6R
YORKTOWN VA      1236   32 45  290/  4/  6 1023.2R
JAMESTOWN VA     1300      42  280/  4/  6   N/A     0
DOMINION TERM VA 1236   34     300/  9/ 11 1023.6R
KIPTOPEKE VA     1236      43  310/ 13/ 15   N/A
CAPE HENRY VA    1236   34     270/  6/  7   N/A
WILLOUBY STN VA  1236          290/  8/  9 1023.2R
S CRANEY ISL VA  1236   32     230/  3/  4 1023.3R
CAPE HENRY BUOY  1300      52                N/A     2/ 6
1ST LANDING BUOY 1300   37 48  310/ 10/ 12 1023.3    1/ 3
CAPE CHARLES BUO 1251      51                N/A     2/ 6
64NM E OF VA BCH 1250   43 57  320/ 14/ 17 1022.8R   6/ 8   5/ 8
DUCK PIER NC     1236   34 51  310/ 10/ 12 1022.9R
44100 DUCK FRF   1245      54                N/A     4/ 6
44056 DUCK FRF   1300      54                N/A     3/ 6
OREGON INLET NC  1236   36 47  310/  9/ 13 1023.3R
HATTERAS NC      1236   39 52  340/ 15/ 18 1023.5R
DIAMOND SHLS NC  1250   44 72  330/ 16/ 21 1023.6R   5/ 8   3/ 8
CAPE LOOKOUT NC  1200          340/ 12/ 14 1024.1R
$$




USA.gov is the U.S. government's official web portal to all federal, state and local government web resources and services.